EWG5AB LIPZ-EDDH

Flight info

Callsign EWG5AB
Flight time 1h 36m
Altitude 36000
Route ROKIB DCT BRENO DCT KONIN DCT EXITI DCT ABGUS DCT DIRBO/N0413F230 T902 RARUP RARUP6A
Aircraft A320/M-SDE3FGHIRWY/LB1

Departure

Time 2026-04-21 19:00
Airport Venice Marco Polo Airport (LIPZ)

Arrival

Time 2026-04-21 20:36
Airport Hamburg Helmut Schmidt Airport (EDDH)
Time Latitude Longitude Altitude Speed Heading
2026-04-21 18:26 45.50756 12.34409 16 ft 0 kts 221°
2026-04-21 18:50 45.50766 12.34422 16 ft 3 kts 225°
2026-04-21 18:50 45.50778 12.34439 18 ft 3 kts 222°
2026-04-21 18:50 45.50794 12.34455 17 ft 3 kts 191°
2026-04-21 18:50 45.50812 12.34454 15 ft 3 kts 149°
2026-04-21 18:51 45.50827 12.34438 17 ft 2 kts 132°
2026-04-21 18:51 45.50832 12.34430 16 ft 0 kts 131°
2026-04-21 18:53 45.50830 12.34434 15 ft 3 kts 132°
2026-04-21 18:53 45.50814 12.34457 16 ft 3 kts 133°
2026-04-21 18:53 45.50803 12.34475 15 ft 4 kts 133°
2026-04-21 18:54 45.50767 12.34530 15 ft 11 kts 133°
2026-04-21 18:54 45.50719 12.34605 15 ft 10 kts 133°
2026-04-21 18:54 45.50677 12.34669 15 ft 8 kts 133°
2026-04-21 18:54 45.50643 12.34721 15 ft 7 kts 133°
2026-04-21 18:55 45.50618 12.34734 15 ft 6 kts 178°
2026-04-21 18:55 45.50542 12.34673 17 ft 14 kts 221°
2026-04-21 18:55 45.50468 12.34578 16 ft 14 kts 222°
2026-04-21 18:55 45.50399 12.34489 16 ft 13 kts 222°
2026-04-21 18:56 45.50336 12.34407 16 ft 12 kts 222°
2026-04-21 18:56 45.50277 12.34332 16 ft 11 kts 222°
2026-04-21 18:56 45.50218 12.34257 16 ft 11 kts 222°
2026-04-21 18:56 45.50144 12.34162 18 ft 19 kts 222°
2026-04-21 18:57 45.50048 12.34038 15 ft 18 kts 223°
2026-04-21 18:57 45.49961 12.33921 16 ft 16 kts 223°
2026-04-21 18:57 45.49882 12.33815 15 ft 15 kts 223°
2026-04-21 18:57 45.49807 12.33723 16 ft 13 kts 220°
2026-04-21 18:58 45.49735 12.33671 16 ft 10 kts 162°
2026-04-21 18:58 45.49685 12.33642 16 ft 8 kts 225°
2026-04-21 18:58 45.49640 12.33623 16 ft 6 kts 162°
2026-04-21 18:58 45.49608 12.33652 16 ft 5 kts 153°
2026-04-21 18:59 45.49566 12.33693 16 ft 10 kts 136°
2026-04-21 18:59 45.49502 12.33791 15 ft 17 kts 132°
2026-04-21 18:59 45.49516 12.33908 14 ft 13 kts 40°
2026-04-21 18:59 45.49597 12.34011 14 ft 26 kts 43°
2026-04-21 19:00 45.49845 12.34342 12 ft 81 kts 43°
2026-04-21 19:00 45.50418 12.35075 13 ft 138 kts 43°
2026-04-21 19:00 45.51192 12.36086 381 ft 151 kts 44°
2026-04-21 19:00 45.51949 12.37135 1056 ft 154 kts 45°
2026-04-21 19:01 45.52728 12.38192 1729 ft 155 kts 45°
2026-04-21 19:01 45.53468 12.39399 2072 ft 176 kts 66°
2026-04-21 19:01 45.53670 12.40555 2258 ft 189 kts 86°
2026-04-21 19:01 45.53430 12.43079 3099 ft 194 kts 98°
2026-04-21 19:02 45.53279 12.44332 3565 ft 195 kts 99°
2026-04-21 19:02 45.53053 12.46290 4185 ft 203 kts 97°
2026-04-21 19:02 45.52846 12.48266 5034 ft 199 kts 97°
2026-04-21 19:02 45.52635 12.50242 5641 ft 209 kts 102°
2026-04-21 19:03 45.51922 12.52035 6251 ft 212 kts 138°
2026-04-21 19:03 45.50622 12.53020 6831 ft 218 kts 169°
2026-04-21 19:03 45.49109 12.52849 7385 ft 224 kts 200°
2026-04-21 19:03 45.47665 12.51982 8012 ft 227 kts 213°
2026-04-21 19:04 45.46605 12.50340 8611 ft 229 kts 247°
2026-04-21 19:04 45.46304 12.48100 9009 ft 241 kts 279°
2026-04-21 19:04 45.46760 12.45723 9356 ft 257 kts 290°
2026-04-21 19:04 45.47338 12.43193 9764 ft 278 kts 290°
2026-04-21 19:05 45.47938 12.40526 10295 ft 292 kts 289°
2026-04-21 19:05 45.48577 12.37660 10526 ft 315 kts 289°
2026-04-21 19:05 45.49259 12.34567 10733 ft 339 kts 289°
2026-04-21 19:05 45.49972 12.31301 11203 ft 350 kts 288°
2026-04-21 19:06 45.50691 12.27965 11932 ft 353 kts 288°
2026-04-21 19:06 45.51413 12.24612 12702 ft 355 kts 288°
2026-04-21 19:06 45.52138 12.21244 13490 ft 356 kts 288°
2026-04-21 19:06 45.52871 12.17860 14236 ft 357 kts 288°
2026-04-21 19:07 45.53608 12.14477 14928 ft 358 kts 288°
2026-04-21 19:07 45.54349 12.11083 15628 ft 359 kts 288°
2026-04-21 19:07 45.55094 12.07671 16316 ft 360 kts 288°
2026-04-21 19:07 45.55839 12.04254 17015 ft 361 kts 288°
2026-04-21 19:08 45.56585 12.00836 17715 ft 361 kts 288°
2026-04-21 19:08 45.57562 11.97537 18423 ft 361 kts 298°
2026-04-21 19:09 45.65675 11.88468 21110 ft 368 kts 329°
2026-04-21 19:09 45.67979 11.86898 21802 ft 366 kts 329°
2026-04-21 19:09 45.70267 11.85331 22505 ft 363 kts 329°
2026-04-21 19:10 45.72546 11.83765 23061 ft 366 kts 328°
2026-04-21 19:10 45.74868 11.82159 23202 ft 376 kts 328°
2026-04-21 19:10 45.77245 11.80509 23492 ft 382 kts 328°
2026-04-21 19:10 45.79647 11.78841 23846 ft 385 kts 328°
2026-04-21 19:11 45.82064 11.77166 24216 ft 386 kts 329°
2026-04-21 19:11 45.84485 11.75491 24622 ft 387 kts 329°
2026-04-21 19:11 45.86922 11.73807 25001 ft 388 kts 328°
2026-04-21 19:11 45.89318 11.72150 25375 ft 389 kts 328°
2026-04-21 19:12 45.90968 11.71010 25632 ft 390 kts 328°
2026-04-21 19:12 45.94323 11.69052 26124 ft 399 kts 338°
2026-04-21 19:12 45.97053 11.68173 26453 ft 404 kts 341°
2026-04-21 19:12 45.99844 11.67352 26791 ft 405 kts 341°
2026-04-21 19:13 46.02580 11.66546 27112 ft 406 kts 341°
2026-04-21 19:13 46.05226 11.65755 27339 ft 407 kts 340°
2026-04-21 19:13 46.08050 11.64898 27620 ft 409 kts 341°
2026-04-21 19:13 46.10841 11.64060 27915 ft 411 kts 341°
2026-04-21 19:14 46.13611 11.63238 28196 ft 412 kts 341°
2026-04-21 19:14 46.16421 11.62405 28534 ft 412 kts 341°
2026-04-21 19:14 46.19227 11.61573 28899 ft 411 kts 341°
2026-04-21 19:14 46.22026 11.60741 29289 ft 409 kts 340°
2026-04-21 19:15 46.24386 11.60041 29526 ft 408 kts 340°
2026-04-21 19:15 46.27167 11.59214 29846 ft 407 kts 340°
2026-04-21 19:15 46.29940 11.58384 30171 ft 406 kts 340°
2026-04-21 19:15 46.32694 11.57560 30319 ft 404 kts 340°
2026-04-21 19:16 46.35449 11.56732 30463 ft 405 kts 341°
2026-04-21 19:16 46.38206 11.55896 30684 ft 406 kts 341°
2026-04-21 19:16 46.40977 11.55052 30951 ft 407 kts 341°
2026-04-21 19:16 46.43750 11.54207 31188 ft 408 kts 341°
2026-04-21 19:17 46.49318 11.52520 31689 ft 410 kts 341°
2026-04-21 19:17 46.52113 11.51674 31965 ft 410 kts 342°
2026-04-21 19:17 46.54909 11.50828 32251 ft 411 kts 342°
2026-04-21 19:18 46.57700 11.49986 32535 ft 409 kts 342°
2026-04-21 19:18 46.60486 11.49144 32767 ft 410 kts 342°
2026-04-21 19:18 46.63282 11.48294 32970 ft 411 kts 342°
2026-04-21 19:18 46.66091 11.47437 33192 ft 413 kts 342°
2026-04-21 19:19 46.68905 11.46577 33437 ft 414 kts 342°
2026-04-21 19:19 46.71687 11.45730 33681 ft 415 kts 342°
2026-04-21 19:19 46.74508 11.44868 33974 ft 415 kts 343°
2026-04-21 19:19 46.77338 11.44005 34190 ft 416 kts 343°
2026-04-21 19:20 46.80169 11.43143 34410 ft 415 kts 343°
2026-04-21 19:20 46.83002 11.42279 34593 ft 417 kts 343°
2026-04-21 19:20 46.85847 11.41409 34827 ft 418 kts 343°
2026-04-21 19:20 46.88565 11.40575 35048 ft 418 kts 343°
2026-04-21 19:21 46.91418 11.39698 35228 ft 420 kts 343°
2026-04-21 19:21 46.94279 11.38819 35418 ft 420 kts 343°
2026-04-21 19:21 46.97147 11.37972 35620 ft 422 kts 347°
2026-04-21 19:21 47.00094 11.37635 35792 ft 428 kts 354°
2026-04-21 19:22 47.03066 11.37604 35980 ft 428 kts 355°
2026-04-21 19:22 47.06052 11.37574 36115 ft 430 kts 354°
2026-04-21 19:22 47.12060 11.37518 36137 ft 433 kts 355°
2026-04-21 19:23 47.18081 11.37471 36135 ft 434 kts 355°
2026-04-21 19:23 47.24120 11.37413 36138 ft 434 kts 355°
2026-04-21 19:24 47.30166 11.37356 36138 ft 434 kts 355°
2026-04-21 19:24 47.36046 11.37293 36138 ft 435 kts 355°
2026-04-21 19:25 47.42098 11.37232 36140 ft 435 kts 355°
2026-04-21 19:25 47.48144 11.37176 36142 ft 434 kts 356°
2026-04-21 19:26 47.54034 11.37116 36141 ft 435 kts 356°
2026-04-21 19:26 47.60085 11.37059 36149 ft 435 kts 356°
2026-04-21 19:27 47.66139 11.36994 36151 ft 436 kts 356°
2026-04-21 19:27 47.72205 11.36936 36157 ft 436 kts 356°
2026-04-21 19:28 47.78268 11.36883 36163 ft 436 kts 356°
2026-04-21 19:28 47.84347 11.36816 36175 ft 437 kts 356°
2026-04-21 19:29 47.90434 11.36829 36174 ft 438 kts 358°
2026-04-21 19:29 47.96532 11.37002 36183 ft 439 kts 358°
2026-04-21 19:30 48.01604 11.37161 36188 ft 439 kts 358°
2026-04-21 19:30 48.07718 11.37312 36187 ft 439 kts 358°
2026-04-21 19:31 48.13823 11.37428 36190 ft 439 kts 358°
2026-04-21 19:31 48.18906 11.37538 36189 ft 440 kts 358°
2026-04-21 19:32 48.23134 11.37677 36186 ft 440 kts 358°
2026-04-21 19:32 48.29257 11.37811 36188 ft 440 kts 358°
2026-04-21 19:33 48.35379 11.37918 36192 ft 440 kts 358°
2026-04-21 19:33 48.41465 11.38043 36195 ft 440 kts 358°
2026-04-21 19:34 48.47594 11.38182 36207 ft 440 kts 359°
2026-04-21 19:34 48.53728 11.38328 36217 ft 441 kts 359°
2026-04-21 19:35 48.62922 11.38549 36224 ft 441 kts 359°
2026-04-21 19:36 48.69052 11.38682 36226 ft 441 kts 359°
2026-04-21 19:36 48.75190 11.38830 36229 ft 441 kts 359°
2026-04-21 19:37 48.81327 11.38974 36230 ft 441 kts 359°
2026-04-21 19:37 48.87465 11.39113 36227 ft 441 kts 359°
2026-04-21 19:38 48.93599 11.39249 36226 ft 441 kts 359°
2026-04-21 19:38 48.99739 11.39387 36225 ft 441 kts 359°
2026-04-21 19:39 49.05876 11.39537 36226 ft 441 kts 359°
2026-04-21 19:39 49.12014 11.39683 36226 ft 441 kts 359°
2026-04-21 19:40 49.18110 11.39819 36223 ft 441 kts 359°
2026-04-21 19:40 49.24245 11.39963 36226 ft 441 kts 360°
2026-04-21 19:41 49.30387 11.40119 36235 ft 441 kts 360°
2026-04-21 19:41 49.36526 11.40259 36238 ft 441 kts 360°
2026-04-21 19:42 49.42673 11.40398 36242 ft 442 kts 360°
2026-04-21 19:42 49.48814 11.40530 36243 ft 442 kts
2026-04-21 19:43 49.54960 11.40681 36245 ft 442 kts
2026-04-21 19:43 49.61078 11.40020 36242 ft 441 kts 354°
2026-04-21 19:44 49.67177 11.39124 36241 ft 441 kts 354°
2026-04-21 19:44 49.73292 11.38224 36243 ft 442 kts 354°
2026-04-21 19:45 49.79349 11.37331 36245 ft 442 kts 354°
2026-04-21 19:45 49.85468 11.36429 36250 ft 442 kts 354°
2026-04-21 19:46 49.91594 11.35520 36252 ft 442 kts 354°
2026-04-21 19:46 49.97710 11.34614 36259 ft 442 kts 355°
2026-04-21 19:47 50.03837 11.33706 36261 ft 442 kts 355°
2026-04-21 19:47 50.09959 11.32793 36263 ft 442 kts 355°
2026-04-21 19:48 50.16081 11.31878 36263 ft 442 kts 355°
2026-04-21 19:48 50.22203 11.30966 36263 ft 442 kts 355°
2026-04-21 19:49 50.28328 11.30037 36265 ft 442 kts 355°
2026-04-21 19:49 50.34451 11.29098 36267 ft 442 kts 355°
2026-04-21 19:50 50.39541 11.28329 36267 ft 442 kts 355°
2026-04-21 19:50 50.46709 11.27249 36271 ft 443 kts 355°
2026-04-21 19:51 50.52840 11.26318 36273 ft 443 kts 355°
2026-04-21 19:51 50.58972 11.25318 36273 ft 443 kts 355°
2026-04-21 19:52 50.65098 11.24217 36277 ft 443 kts 355°
2026-04-21 19:52 50.71225 11.23110 36277 ft 443 kts 355°
2026-04-21 19:53 50.77355 11.22023 36274 ft 443 kts 355°
2026-04-21 19:53 50.83482 11.20937 36270 ft 443 kts 355°
2026-04-21 19:54 50.89611 11.19845 36272 ft 443 kts 355°
2026-04-21 19:54 50.95737 11.18743 36274 ft 443 kts 355°
2026-04-21 19:55 51.01860 11.17647 36274 ft 443 kts 355°
2026-04-21 19:55 51.07978 11.16553 36281 ft 443 kts 356°
2026-04-21 19:56 51.14099 11.15460 36282 ft 442 kts 356°
2026-04-21 19:56 51.20216 11.14353 36286 ft 442 kts 355°
2026-04-21 19:57 51.26331 11.13228 36296 ft 442 kts 356°
2026-04-21 19:57 51.32441 11.12123 36298 ft 442 kts 356°
2026-04-21 19:58 51.38511 11.11028 36307 ft 442 kts 356°
2026-04-21 19:58 51.44621 11.09923 36305 ft 442 kts 356°
2026-04-21 19:59 51.50733 11.08801 36307 ft 442 kts 356°
2026-04-21 19:59 51.56839 11.07682 36305 ft 441 kts 356°
2026-04-21 20:00 51.62943 11.06564 36304 ft 441 kts 356°
2026-04-21 20:00 51.69035 11.05431 36309 ft 441 kts 356°
2026-04-21 20:01 51.75133 11.04295 36302 ft 441 kts 356°
2026-04-21 20:01 51.81221 11.03171 36305 ft 441 kts 356°
2026-04-21 20:02 51.87311 11.02031 36309 ft 440 kts 356°
2026-04-21 20:02 51.93392 11.00893 36310 ft 440 kts 356°
2026-04-21 20:03 51.99479 10.99762 36310 ft 440 kts 356°
2026-04-21 20:03 52.05517 10.98629 36299 ft 440 kts 356°
2026-04-21 20:03 52.08568 10.98054 35814 ft 442 kts 356°
2026-04-21 20:04 52.11611 10.97479 35209 ft 439 kts 357°
2026-04-21 20:04 52.14642 10.96907 34619 ft 438 kts 357°
2026-04-21 20:04 52.17662 10.96339 33982 ft 437 kts 358°
2026-04-21 20:04 52.20685 10.95769 33289 ft 437 kts 358°
2026-04-21 20:05 52.23714 10.95195 32620 ft 438 kts 358°
2026-04-21 20:05 52.26747 10.94621 31965 ft 439 kts 358°
2026-04-21 20:05 52.29785 10.94046 31319 ft 441 kts 358°
2026-04-21 20:05 52.32836 10.93468 30696 ft 442 kts 358°
2026-04-21 20:06 52.35897 10.92885 30016 ft 443 kts 359°
2026-04-21 20:06 52.38963 10.92299 29293 ft 445 kts 359°
2026-04-21 20:06 52.42043 10.91710 28573 ft 447 kts 359°
2026-04-21 20:06 52.45135 10.91119 27855 ft 449 kts 358°
2026-04-21 20:07 52.48235 10.90525 27149 ft 445 kts 358°
2026-04-21 20:07 52.51288 10.89933 26471 ft 437 kts 358°
2026-04-21 20:07 52.53274 10.89549 26030 ft 433 kts 359°
2026-04-21 20:07 52.57224 10.88788 25418 ft 419 kts 359°
2026-04-21 20:08 52.60059 10.88236 25299 ft 402 kts 359°
2026-04-21 20:08 52.62762 10.87700 25330 ft 382 kts 359°
2026-04-21 20:08 52.65346 10.87186 25288 ft 367 kts 359°
2026-04-21 20:08 52.67847 10.86697 24978 ft 360 kts 360°
2026-04-21 20:09 52.70289 10.86231 24575 ft 356 kts 360°
2026-04-21 20:09 52.72738 10.85770 24162 ft 352 kts 360°
2026-04-21 20:09 52.75164 10.85311 23726 ft 349 kts 360°
2026-04-21 20:09 52.77560 10.84851 23245 ft 346 kts 359°
2026-04-21 20:10 52.79947 10.84390 22772 ft 344 kts 359°
2026-04-21 20:10 52.82319 10.83931 22305 ft 342 kts 359°
2026-04-21 20:10 52.84670 10.83476 21835 ft 340 kts 359°
2026-04-21 20:10 52.87022 10.83020 21395 ft 338 kts 359°
2026-04-21 20:11 52.89353 10.82565 20952 ft 337 kts 359°
2026-04-21 20:11 52.91675 10.82108 20520 ft 335 kts 359°
2026-04-21 20:11 52.93982 10.81654 20078 ft 333 kts 359°
2026-04-21 20:11 52.96278 10.81204 19652 ft 332 kts 359°
2026-04-21 20:12 52.98568 10.80757 19234 ft 331 kts 359°
2026-04-21 20:12 53.00850 10.80313 18822 ft 330 kts 358°
2026-04-21 20:12 53.02357 10.80019 18541 ft 329 kts 358°
2026-04-21 20:12 53.05389 10.79425 17909 ft 328 kts 358°
2026-04-21 20:13 53.07650 10.78980 17451 ft 327 kts 358°
2026-04-21 20:13 53.09909 10.78537 16996 ft 326 kts 358°
2026-04-21 20:13 53.12157 10.78091 16566 ft 325 kts 358°
2026-04-21 20:13 53.14395 10.77645 16154 ft 323 kts 358°
2026-04-21 20:14 53.16626 10.77201 15745 ft 322 kts 358°
2026-04-21 20:14 53.18814 10.76765 15341 ft 321 kts 358°
2026-04-21 20:14 53.21028 10.76329 14944 ft 319 kts 358°
2026-04-21 20:14 53.23226 10.75897 14544 ft 318 kts 358°
2026-04-21 20:15 53.25451 10.75456 14155 ft 317 kts 357°
2026-04-21 20:15 53.27601 10.75029 13726 ft 315 kts 357°
2026-04-21 20:15 53.29772 10.74597 13294 ft 313 kts 357°
2026-04-21 20:15 53.31932 10.74168 12871 ft 312 kts 357°
2026-04-21 20:16 53.34082 10.73744 12447 ft 310 kts 357°
2026-04-21 20:16 53.36217 10.73319 12027 ft 308 kts 357°
2026-04-21 20:16 53.38339 10.72894 11617 ft 306 kts 357°
2026-04-21 20:16 53.40448 10.72471 11220 ft 304 kts 357°
2026-04-21 20:17 53.42545 10.72049 10817 ft 302 kts 357°
2026-04-21 20:17 53.44629 10.71631 10448 ft 300 kts 357°
2026-04-21 20:17 53.46664 10.71223 10299 ft 289 kts 357°
2026-04-21 20:17 53.48630 10.70829 10227 ft 282 kts 357°
2026-04-21 20:18 53.49920 10.70569 10178 ft 281 kts 357°
2026-04-21 20:18 53.52511 10.70051 10069 ft 280 kts 357°
2026-04-21 20:18 53.54449 10.69664 9971 ft 280 kts 357°
2026-04-21 20:18 53.56380 10.69250 9908 ft 281 kts 353°
2026-04-21 20:19 53.58239 10.68175 9828 ft 286 kts 336°
2026-04-21 20:19 53.59865 10.66199 9748 ft 292 kts 319°
2026-04-21 20:19 53.61099 10.63492 9669 ft 296 kts 301°
2026-04-21 20:19 53.61827 10.60220 9581 ft 300 kts 283°
2026-04-21 20:20 53.61944 10.56703 9503 ft 302 kts 264°
2026-04-21 20:20 53.61458 10.53264 9418 ft 303 kts 252°
2026-04-21 20:20 53.60810 10.49878 9344 ft 303 kts 252°
2026-04-21 20:20 53.60171 10.46554 9267 ft 303 kts 252°
2026-04-21 20:21 53.59524 10.43186 9177 ft 302 kts 252°
2026-04-21 20:21 53.58876 10.39814 9101 ft 302 kts 252°
2026-04-21 20:21 53.58230 10.36451 9020 ft 302 kts 252°
2026-04-21 20:21 53.57584 10.33097 8948 ft 301 kts 252°
2026-04-21 20:22 53.56940 10.29746 8869 ft 301 kts 252°
2026-04-21 20:22 53.55859 10.24144 8741 ft 300 kts 252°
2026-04-21 20:22 53.55219 10.20850 8595 ft 300 kts 252°
2026-04-21 20:23 53.54576 10.17528 8455 ft 298 kts 252°
2026-04-21 20:23 53.53936 10.14215 8323 ft 298 kts 252°
2026-04-21 20:23 53.53296 10.10906 8197 ft 297 kts 252°
2026-04-21 20:23 53.52656 10.07619 8070 ft 296 kts 252°
2026-04-21 20:24 53.52011 10.04320 7941 ft 296 kts 252°
2026-04-21 20:24 53.51374 10.01068 7813 ft 288 kts 252°
2026-04-21 20:24 53.50763 9.97956 7681 ft 276 kts 252°
2026-04-21 20:24 53.50098 9.94994 7560 ft 265 kts 242°
2026-04-21 20:25 53.49071 9.92473 7425 ft 260 kts 228°
2026-04-21 20:25 53.47908 9.90156 7310 ft 259 kts 229°
2026-04-21 20:25 53.46751 9.87838 7144 ft 259 kts 229°
2026-04-21 20:25 53.45600 9.85527 6904 ft 257 kts 229°
2026-04-21 20:26 53.44456 9.83227 6777 ft 257 kts 229°
2026-04-21 20:26 53.43314 9.80930 6649 ft 256 kts 229°
2026-04-21 20:26 53.42172 9.78637 6510 ft 256 kts 229°
2026-04-21 20:26 53.41031 9.76352 6254 ft 255 kts 229°
2026-04-21 20:27 53.39894 9.74078 5993 ft 254 kts 229°
2026-04-21 20:27 53.38761 9.71809 5733 ft 253 kts 229°
2026-04-21 20:27 53.37642 9.69555 5477 ft 251 kts 231°
2026-04-21 20:27 53.36853 9.66959 5133 ft 252 kts 257°
2026-04-21 20:28 53.36807 9.64063 4764 ft 249 kts 284°
2026-04-21 20:28 53.37514 9.61475 4402 ft 243 kts 311°
2026-04-21 20:28 53.38765 9.59713 4041 ft 237 kts 336°
2026-04-21 20:28 53.40318 9.58976 3698 ft 230 kts
2026-04-21 20:29 53.41872 9.59281 3498 ft 223 kts 15°
2026-04-21 20:29 53.43313 9.60150 3277 ft 219 kts 31°
2026-04-21 20:29 53.44516 9.61645 3083 ft 211 kts 47°
2026-04-21 20:29 53.45443 9.63457 3000 ft 199 kts 52°
2026-04-21 20:30 53.46356 9.65306 3018 ft 218 kts 52°
2026-04-21 20:30 53.47342 9.67285 3009 ft 220 kts 51°
2026-04-21 20:30 53.48330 9.69259 3007 ft 217 kts 51°
2026-04-21 20:30 53.49280 9.71157 3008 ft 208 kts 51°
2026-04-21 20:31 53.50179 9.72955 3006 ft 193 kts 52°
2026-04-21 20:31 53.51005 9.74606 3037 ft 176 kts 52°
2026-04-21 20:31 53.51769 9.76137 3011 ft 167 kts 52°
2026-04-21 20:31 53.52496 9.77594 2963 ft 161 kts 52°
2026-04-21 20:32 53.53219 9.79046 2805 ft 160 kts 52°
2026-04-21 20:32 53.53890 9.80390 2607 ft 142 kts 52°
2026-04-21 20:32 53.54508 9.81632 2422 ft 133 kts 52°
2026-04-21 20:32 53.55088 9.82797 2248 ft 128 kts 52°
2026-04-21 20:33 53.55654 9.83934 2074 ft 126 kts 52°
2026-04-21 20:33 53.56211 9.85058 1896 ft 124 kts 52°
2026-04-21 20:33 53.56760 9.86174 1713 ft 124 kts 51°
2026-04-21 20:33 53.57309 9.87286 1525 ft 123 kts 51°
2026-04-21 20:34 53.57854 9.88370 1359 ft 122 kts 51°
2026-04-21 20:34 53.58403 9.89465 1195 ft 122 kts 50°
2026-04-21 20:34 53.58951 9.90576 1017 ft 122 kts 50°
2026-04-21 20:34 53.59488 9.91671 855 ft 123 kts 51°
2026-04-21 20:35 53.60045 9.92783 682 ft 126 kts 49°
2026-04-21 20:35 53.60607 9.93924 537 ft 128 kts 49°
2026-04-21 20:35 53.61175 9.95072 311 ft 128 kts 49°
2026-04-21 20:35 53.61744 9.96220 169 ft 128 kts 49°
2026-04-21 20:36 53.62313 9.97358 53 ft 124 kts 48°
2026-04-21 20:36 53.62792 9.98317 43 ft 85 kts 53°
2026-04-21 20:36 53.63096 9.98949 46 ft 61 kts 48°
2026-04-21 20:36 53.63309 9.99374 47 ft 34 kts 51°
2026-04-21 20:37 53.63438 9.99649 48 ft 26 kts 53°
2026-04-21 20:37 53.63512 9.99813 50 ft 6 kts 52°
2026-04-21 20:37 53.63512 9.99814 50 ft 0 kts 52°
2026-04-21 20:37 53.63520 9.99832 47 ft 8 kts 51°
2026-04-21 20:38 53.63513 9.99938 48 ft 9 kts 120°
2026-04-21 20:38 53.63472 10.00023 49 ft 10 kts 126°
2026-04-21 20:38 53.63433 10.00117 48 ft 9 kts 124°
2026-04-21 20:38 53.63399 10.00200 48 ft 8 kts 125°
2026-04-21 20:39 53.63360 10.00229 48 ft 2 kts 174°
2026-04-21 20:39 53.63345 10.00231 47 ft 2 kts 175°
2026-04-21 20:39 53.63335 10.00233 48 ft 1 kts 174°
2026-04-21 20:39 53.63331 10.00237 48 ft 0 kts 152°
2026-04-21 20:40 53.63329 10.00253 48 ft 2 kts 86°
2026-04-21 20:40 53.63328 10.00289 48 ft 3 kts 94°
2026-04-21 20:40 53.63329 10.00321 48 ft 2 kts 85°
2026-04-21 20:40 53.63331 10.00344 48 ft 2 kts 85°
2026-04-21 20:41 53.63331 10.00346 48 ft 0 kts 85°